GW3498 Weather Reports


time (UTC)temp
F
wind
direction
speed
knots
gust
knots
rain 1hr
in
rain 24hr
in
rain mn
in
humidity
%
barometer
mb
20260906064526 72 167 0.0 0.9 0.00 0.00 0.00 76 1020.6
20260906063521 71 171 0.0 0.9 0.00 0.00 0.00 75 1020.5
20260906062536 71 0.0 0.0 0.00 0.00 0.00 81 1020.6
20260906061530 70 0.0 0.0 0.00 0.00 0.00 83 1020.6
20260906060524 69 0.0 0.0 0.00 0.00 0.00 84 1020.4
20260906055518 69 0.0 0.0 0.00 0.00 0.00 85 1020.4
20260906054533 69 0.0 0.0 0.00 0.00 0.00 86 1020.3
20260906053528 69 0.0 0.0 0.00 0.00 0.00 87 1020.3
20260906052542 68 0.0 0.0 0.00 0.00 0.00 88 1020.0
20260906051518 68 0.0 0.0 0.00 0.00 0.00 88 1020.2
20260906050532 68 0.0 0.0 0.00 0.00 0.00 88 1020.2
20260906045527 68 58 0.0 0.9 0.00 0.00 0.00 89 1020.1
20260906044521 68 0.0 0.0 0.00 0.00 0.00 88 1020.1
20260906043536 69 0.0 0.0 0.00 0.00 0.00 87 1020.0
20260906042531 69 0.0 0.0 0.00 0.00 0.00 88 1020.1
20260906041525 69 0.0 0.0 0.00 0.00 0.00 88 1020.0
20260906040540 69 0.0 0.0 0.00 0.00 0.00 87 1020.0
20260906035534 68 57 0.0 0.9 0.00 0.00 0.00 88 1019.9
20260906034529 68 0.0 0.0 0.00 0.00 0.00 87 1019.7
20260906033523 69 84 0.0 0.9 0.00 0.00 0.00 86 1019.7
20260906032518 69 43 0.0 0.9 0.00 0.00 0.00 86 1019.8
20260906031534 68 0.0 0.0 0.00 0.00 0.00 87 1019.8
20260906030529 68 0.0 0.0 0.00 0.00 0.00 87 1019.8
20260906025523 69 0.0 0.0 0.00 0.00 0.00 85 1019.9
20260906024516 69 49 0.0 0.9 0.00 0.00 0.00 86 1020.0
20260906023532 70 20 0.0 0.9 0.00 0.00 0.00 86 1020.0
20260906022546 70 33 0.0 0.9 0.00 0.00 0.00 87 1020.0
20260906021520 70 51 0.0 0.9 0.00 0.00 0.00 87 1020.0
20260906020534 70 0.0 0.0 0.00 0.00 0.00 85 1019.8
20260906015529 70 43 0.0 0.9 0.00 0.00 0.00 86 1019.9
20260906014523 70 0.0 0.0 0.00 0.00 0.00 85 1019.8
20260906013519 71 0.0 0.0 0.00 0.00 0.00 83 1019.9
20260906012553 72 354 0.0 1.7 0.00 0.00 0.00 83 1020.0
20260906011527 71 22 0.0 1.7 0.00 0.00 0.00 82 1020.1
20260906010522 71 0.0 0.0 0.00 0.00 0.00 81 1020.1
20260906005517 70 0.0 0.0 0.00 0.00 0.00 83 1019.9
20260906004532 70 0.0 0.0 0.00 0.00 0.00 83 1019.9
20260906003526 71 0.0 0.0 0.00 0.00 0.00 81 1020.0
20260906002521 71 0.0 0.0 0.00 0.00 0.00 82 1020.1
20260906001535 72 0.0 0.0 0.00 0.00 0.00 80 1020.1
20260906000529 73 147 0.0 0.9 0.00 0.00 0.00 78 1020.2
20260905235524 73 18 0.9 2.6 0.00 0.00 0.00 77 1020.3
20260905234542 74 65 0.0 0.9 0.00 0.00 0.00 77 1020.3
20260905233534 74 357 0.9 2.6 0.00 0.00 0.00 77 1020.3
20260905232529 74 358 0.9 2.6 0.00 0.00 0.00 77 1020.3
20260905231526 74 8 0.9 2.6 0.00 0.00 0.00 76 1020.2
20260905230519 74 348 1.7 3.5 0.00 0.00 0.00 76 1020.1
20260905225533 74 337 0.9 1.7 0.00 0.00 0.00 76 1020.3
20260905224528 74 357 1.7 2.6 0.00 0.00 0.00 76 1020.4
20260905223524 74 357 1.7 2.6 0.00 0.00 0.00 75 1020.3
20260905222516 74 349 0.9 3.5 0.00 0.00 0.00 75 1020.4
20260905221532 74 353 0.9 2.6 0.00 0.00 0.00 74 1020.3
20260905220527 74 353 1.7 2.6 0.00 0.00 0.00 74 1020.3
20260905215522 75 28 0.9 2.6 0.00 0.00 0.00 73 1020.3
20260905214518 75 350 1.7 5.2 0.00 0.00 0.00 74 1020.1
20260905213552 74 356 1.7 3.5 0.00 0.00 0.00 74 1020.2
20260905212525 74 7 0.0 1.7 0.00 0.00 0.00 75 1020.2
20260905211519 74 150 0.0 0.9 0.00 0.00 0.00 76 1020.2
20260905205529 74 85 0.0 1.7 0.00 0.00 0.00 77 1020.1
20260905204526 74 21 1.7 5.2 0.00 0.00 0.00 78 1020.0
20260905203518 74 266 0.9 2.6 0.00 0.00 0.00 77 1020.0
20260905202533 75 355 1.7 3.5 0.00 0.00 0.00 76 1020.1
20260905201527 75 345 1.7 5.2 0.00 0.00 0.00 75 1020.2
20260905200522 75 321 0.9 2.6 0.00 0.00 0.00 75 1020.1
20260905195517 75 339 2.6 5.2 0.00 0.00 0.00 74 1020.3
20260905194531 75 271 1.7 3.5 0.00 0.00 0.00 73 1020.0
20260905193526 76 359 1.7 7.8 0.00 0.00 0.00 72 1020.1
20260905192540 76 343 0.9 3.5 0.00 0.00 0.00 71 1019.9
20260905191534 76 348 1.7 6.1 0.00 0.00 0.00 71 1019.8
20260905190529 77 343 1.7 6.1 0.00 0.00 0.00 69 1019.9
20260905185543 77 343 2.6 7.8 0.00 0.00 0.00 64 1019.8
20260905184517 78 348 2.6 6.1 0.00 0.00 0.00 63 1019.6
20260905183532 78 355 1.7 7.0 0.00 0.00 0.00 62 1019.5
20260905182646 79 359 2.6 7.0 0.00 0.00 0.00 62 1019.5
20260905181541 79 350 1.7 7.0 0.00 0.00 0.00 60 1019.5
20260905180516 80 345 0.9 2.6 0.00 0.00 0.00 55 1019.4
20260905175531 81 359 1.7 3.5 0.00 0.00 0.00 52 1019.3
20260905174526 81 347 2.6 5.2 0.00 0.00 0.00 50 1019.3
20260905173520 82 343 2.6 6.1 0.00 0.00 0.00 50 1019.1
20260905172535 82 348 1.7 5.2 0.00 0.00 0.00 50 1019.1
20260905171549 83 358 0.9 3.5 0.00 0.00 0.00 50 1019.1
20260905170524 83 18 1.7 3.5 0.00 0.00 0.00 49 1019.0
20260905165518 84 9 1.7 5.2 0.00 0.00 0.00 49 1019.1
20260905164535 85 311 1.7 6.1 0.00 0.00 0.00 47 1019.0
20260905163526 86 342 0.9 2.6 0.00 0.00 0.00 45 1019.1
20260905162521 87 285 0.9 5.2 0.00 0.00 0.00 41 1018.9
20260905161517 88 234 0.9 5.2 0.00 0.00 0.00 39 1019.0
20260905160533 88 216 0.9 2.6 0.00 0.00 0.00 41 1019.0
20260905155527 88 263 0.9 5.2 0.00 0.00 0.00 43 1019.0
20260905154521 89 344 1.7 6.1 0.00 0.00 0.00 44 1019.2
20260905153516 89 235 0.9 3.5 0.00 0.00 0.00 43 1019.1
20260905152531 88 256 0.9 5.2 0.00 0.00 0.00 46 1019.1
20260905151525 88 1 2.6 7.0 0.00 0.00 0.00 47 1019.0
20260905150519 89 340 2.6 7.0 0.00 0.00 0.00 46 1019.3
20260905145534 89 218 1.7 2.6 0.00 0.00 0.00 43 1019.1
20260905144548 89 356 3.5 7.0 0.00 0.00 0.00 42 1019.2
20260905143523 90 283 2.6 6.1 0.00 0.00 0.00 39 1019.1
20260905142518 91 234 1.7 5.2 0.00 0.00 0.00 37 1019.2
20260905141553 92 270 1.7 5.2 0.00 0.00 0.00 36 1019.2
20260905140548 91 332 1.7 6.1 0.00 0.00 0.00 35 1019.1
20260905135521 92 280 1.7 5.2 0.00 0.00 0.00 34 1019.3
20260905134535 93 293 1.7 5.2 0.00 0.00 0.00 33 1019.3
20260905133531 93 272 2.6 7.0 0.00 0.00 0.00 31 1019.2
20260905132546 93 254 1.7 2.6 0.00 0.00 0.00 31 1019.4
20260905131519 93 234 1.7 5.2 0.00 0.00 0.00 32 1019.4
20260905130554 93 252 1.7 6.1 0.00 0.00 0.00 33 1019.3
20260905125528 93 8 2.6 7.0 0.00 0.00 0.00 32 1019.4
20260905124523 94 255 1.7 2.6 0.00 0.00 0.00 32 1019.4
20260905123519 94 217 0.9 2.6 0.00 0.00 0.00 31 1019.4
20260905122533 95 311 0.9 1.7 0.00 0.00 0.00 29 1019.6
20260905121547 93 14 1.7 6.1 0.00 0.00 0.00 31 1019.7
20260905120521 94 340 0.9 3.5 0.00 0.00 0.00 31 1019.7
20260905115517 92 164 1.7 5.2 0.00 0.00 0.00 31 1019.8
20260905114531 93 228 1.7 3.5 0.00 0.00 0.00 31 1019.7
20260905113526 92 186 0.9 2.6 0.00 0.00 0.00 31 1019.8
20260905112520 92 138 1.7 3.5 0.00 0.00 0.00 31 1019.7
20260905111555 92 149 1.7 3.5 0.00 0.00 0.00 30 1019.8
20260905110531 92 193 0.9 6.1 0.00 0.00 0.00 31 1019.9
20260905105523 91 185 1.7 3.5 0.00 0.00 0.00 30 1019.9
20260905104518 92 261 0.9 3.5 0.00 0.00 0.00 30 1019.9
20260905103533 91 210 0.9 2.6 0.00 0.00 0.00 29 1019.9
20260905102527 92 205 1.7 2.6 0.00 0.00 0.00 29 1019.9
20260905101522 91 198 1.7 5.2 0.00 0.00 0.00 30 1020.1
20260905100517 91 191 0.9 2.6 0.00 0.00 0.00 30 1020.2
20260905095532 91 195 0.9 3.5 0.00 0.00 0.00 34 1020.2
20260905094526 91 146 0.9 2.6 0.00 0.00 0.00 33 1020.2
20260905093521 91 152 0.0 1.7 0.00 0.00 0.00 32 1020.1
20260905092534 91 177 0.9 2.6 0.00 0.00 0.00 33 1020.1
20260905091534 90 196 0.0 1.7 0.00 0.00 0.00 32 1020.2
20260905090524 90 193 0.9 2.6 0.00 0.00 0.00 34 1020.1
20260905085519 89 178 0.9 2.6 0.00 0.00 0.00 36 1020.2
20260905084536 88 163 0.0 0.9 0.00 0.00 0.00 37 1020.2
20260905083528 88 158 0.0 0.9 0.00 0.00 0.00 38 1020.2
20260905082523 87 163 0.9 1.7 0.00 0.00 0.00 40 1020.1
20260905081517 87 164 0.9 1.7 0.00 0.00 0.00 40 1019.9
20260905080534 86 163 0.9 1.7 0.00 0.00 0.00 41 1019.9
20260905075527 86 178 0.0 1.7 0.00 0.00 0.00 41 1019.7
20260905074522 85 161 0.0 0.9 0.00 0.00 0.00 41 1020.0
20260905073517 83 180 0.0 0.9 0.00 0.00 0.00 44 1019.9
20260905072531 80 147 0.0 0.9 0.00 0.00 0.00 45 1020.0
20260905071526 78 124 0.0 1.7 0.00 0.00 0.00 47 1020.1
20260905070522 77 0.0 0.0 0.00 0.00 0.00 53 1020.0
20260905065519 76 0.0 0.0 0.00 0.00 0.00 55 1019.9